Home   Weather   Alsfeld   Past weeks

Flag for Germany Past Weather in Alsfeld, Hesse, Germany — Yesterday and Last 2 Weeks

Now
21 °F

Fog.


Feels Like: 21 °F
Forecast: 18 / 32 °F
Wind: No wind

Location: Fritzlar

Current Time: Dec 4, 2016 at 1:26:23 pm

Latest Report: Dec 4, 2016 at 12:00 pm


Visibility: 0 mi

Pressure: 30.46 "Hg

Humidity: 93%

Dew Point: 20 °F

Location of AlsfeldLocation

Past Weather in Alsfeld — Graph

°F

Alsfeld Temperature Yesterday

Maximum temperature yesterday: 28 °F (at 12:00 am)
Minimum temperature yesterday: 21 °F (at 5:00 am)
Average temperature yesterday: 24 °F

High & Low Weather Summary for the Past Weeks

 TemperatureHumidityPressure
High56 °F (Nov 20, 5:00 pm)98% (Nov 26, 11:00 pm)30.64 "Hg (Nov 26, 11:00 pm)
Low18 °F (Nov 30, 5:00 am)49% (Nov 25, 2:00 pm)29.47 "Hg (Nov 20, 3:00 pm)
Average37 °F84%30.16 "Hg
* Reported Nov 19 12:00 pm — Dec 4 12:00 pm, Alsfeld, Weather by CustomWeather, © 2016

Note: Actual official high and low records may vary slightly from our data, if they occured in-between our weather recording intervals... More about our weather records

Advertising

Alsfeld Weather History for the Previous 24 Hours

Scroll right to see more
 ConditionsComfort  
Time TempWeatherWind HumidityBarometerVisibility
12:00 pm
Sun, Dec 4
21 °FFog.No wind93%30.46 "Hg0 mi
11:00 am20 °FFog.1 mph93%30.47 "Hg0 mi
9:00 am19 °FFog.N/A93%30.46 "Hg0 mi
8:00 am20 °FFog.N/A93%30.45 "Hg0 mi
6:00 am20 °FFog.N/A92%30.42 "Hg0 mi
5:00 am20 °FFog.No wind93%30.42 "Hg0 mi
3:00 am22 °FFog.1 mph93%30.43 "Hg1 mi
2:00 am21 °FFog.1 mph94%30.42 "Hg1 mi
12:00 am22 °FFog.1 mph93%30.42 "Hg1 mi
11:00 pm
Sat, Dec 3
22 °FFog.1 mph93%30.41 "Hg1 mi
9:00 pm22 °FFog.No wind93%30.40 "Hg0 mi
8:00 pm22 °FFog.No wind94%30.40 "Hg0 mi
6:00 pm24 °FFog.N/A95%30.37 "Hg0 mi
5:00 pm25 °FFog.1 mph95%30.37 "Hg0 mi
3:00 pm26 °FFog.N/A95%30.35 "Hg0 mi
2:00 pm26 °FFog.N/A95%30.36 "Hg0 mi
Weather by CustomWeather, © 2016

See weather overviewHow to use our weather pages